TimeNST,TemperatureF,Dew PointF,Humidity,Sea Level PressureIn,VisibilityMPH,Wind Direction,Wind SpeedMPH,Gust SpeedMPH,PrecipitationIn,Events,Conditions,WindDirDegrees,DateUTC
12:30 AM,37.6,33.6,86,30.12,-9999.0,Calm,Calm,-,N/A,,Unknown,0,2013-11-07 04:00:00
1:30 AM,37.2,34.3,89,30.10,-9999.0,Calm,Calm,-,N/A,,Unknown,0,2013-11-07 05:00:00
2:30 AM,37,36,96,30.08,,Calm,Calm,,,,,,2013-11-07 06:00:00
2:30 AM,37.0,36.3,97,30.08,-9999.0,Calm,Calm,-,0.03,,Unknown,0,2013-11-07 06:00:00
3:30 AM,37.4,37.0,99,30.07,-9999.0,Calm,Calm,-,0.03,,Unknown,0,2013-11-07 07:00:00
4:30 AM,37.6,37.4,99,30.05,-9999.0,SW,4.6,-,N/A,,Unknown,220,2013-11-07 08:00:00
5:30 AM,37.8,37.6,99,30.03,-9999.0,SW,5.8,-,N/A,,Unknown,220,2013-11-07 09:00:00
6:30 AM,38.1,37.8,99,29.99,-9999.0,WSW,5.8,-,N/A,,Unknown,240,2013-11-07 10:00:00
7:30 AM,39.2,38.8,99,29.97,-9999.0,SW,6.9,-,N/A,,Unknown,220,2013-11-07 11:00:00
8:30 AM,40,39,97,29.95,,SW,9.2,,,,,220,2013-11-07 12:00:00
8:30 AM,39.9,39.4,98,29.95,-9999.0,SW,9.2,-,N/A,,Unknown,220,2013-11-07 12:00:00
9:30 AM,40.8,39.9,97,29.91,-9999.0,SSW,8.1,-,N/A,,Unknown,210,2013-11-07 13:00:00
10:30 AM,41.5,40.8,97,29.87,-9999.0,South,4.6,-,N/A,,Unknown,180,2013-11-07 14:00:00
11:30 AM,43.2,42.8,99,29.82,-9999.0,South,5.8,-,N/A,,Unknown,190,2013-11-07 15:00:00
12:30 PM,46.6,46.4,99,29.75,-9999.0,SSW,6.9,-,0.03,,Unknown,200,2013-11-07 16:00:00
1:30 PM,49.1,48.9,99,29.70,-9999.0,SSW,9.2,19.6,N/A,,Unknown,210,2013-11-07 17:00:00
2:30 PM,51,51,99,29.67,,SW,9.2,,,,,230,2013-11-07 18:00:00
2:30 PM,50.9,50.7,99,29.67,-9999.0,SW,9.2,18.4,N/A,,Unknown,230,2013-11-07 18:00:00
3:30 PM,51.6,50.7,97,29.66,-9999.0,WSW,12.7,25.3,N/A,,Unknown,240,2013-11-07 19:00:00
4:30 PM,51.3,49.6,94,29.65,-9999.0,WSW,12.7,21.9,N/A,,Unknown,240,2013-11-07 20:00:00
5:30 PM,50.9,49.3,94,29.65,-9999.0,SW,11.5,19.6,N/A,,Unknown,230,2013-11-07 21:00:00
6:30 PM,50.7,48.4,92,29.65,-9999.0,WSW,12.7,21.9,N/A,,Unknown,250,2013-11-07 22:00:00
7:30 PM,50.5,48.4,92,29.64,-9999.0,WSW,12.7,24.2,N/A,,Unknown,240,2013-11-07 23:00:00
8:30 PM,51,48,87,29.62,,WSW,13.8,,,,,240,2013-11-08 00:00:00
8:30 PM,50.7,48.2,91,29.62,-9999.0,WSW,13.8,23.0,N/A,,Unknown,240,2013-11-08 00:00:00
9:30 PM,50.9,49.8,96,29.62,-9999.0,WSW,13.8,21.9,0.02,,Unknown,240,2013-11-08 01:00:00
10:30 PM,51.1,50.0,96,29.60,-9999.0,SW,11.5,23.0,N/A,,Unknown,230,2013-11-08 02:00:00
11:30 PM,51.4,50.5,97,29.55,-9999.0,SW,11.5,21.9,N/A,,Unknown,230,2013-11-08 03:00:00